TimeEST,TemperatureF,Dew PointF,Humidity,Sea Level PressureIn,VisibilityMPH,Wind Direction,Wind SpeedMPH,Gust SpeedMPH,PrecipitationIn,Events,Conditions,WindDirDegrees,DateUTC
12:15 AM,42.8,30.2,61,29.77,10.0,SE,6.9,-,N/A,,Mostly Cloudy,140,2014-01-14 05:15:00
12:35 AM,42.8,30.2,61,29.77,10.0,South,4.6,-,N/A,,Overcast,180,2014-01-14 05:35:00
12:55 AM,44.6,30.2,57,29.77,10.0,South,5.8,-,N/A,,Overcast,190,2014-01-14 05:55:00
1:15 AM,44.6,30.2,57,29.77,10.0,SSE,4.6,-,N/A,,Overcast,160,2014-01-14 06:15:00
1:35 AM,44.6,32.0,61,29.75,10.0,SSE,5.8,-,N/A,,Overcast,160,2014-01-14 06:35:00
1:55 AM,42.8,32.0,66,29.76,10.0,SSE,3.5,-,N/A,,Overcast,150,2014-01-14 06:55:00
2:15 AM,42.8,32.0,66,29.74,10.0,SE,8.1,-,N/A,,Overcast,130,2014-01-14 07:15:00
2:35 AM,42.8,33.8,70,29.75,10.0,SSE,6.9,-,N/A,,Overcast,150,2014-01-14 07:35:00
2:55 AM,42.8,33.8,70,29.75,10.0,ESE,8.1,-,N/A,,Overcast,120,2014-01-14 07:55:00
3:15 AM,44.6,33.8,66,29.72,10.0,SSE,6.9,-,N/A,,Overcast,150,2014-01-14 08:15:00
3:35 AM,44.6,33.8,66,29.73,10.0,SSE,9.2,-,N/A,,Overcast,150,2014-01-14 08:35:00
3:55 AM,42.8,33.8,70,29.72,10.0,SSE,4.6,-,N/A,,Overcast,160,2014-01-14 08:55:00
4:15 AM,42.8,35.6,76,29.71,10.0,SE,9.2,-,N/A,,Overcast,130,2014-01-14 09:15:00
4:35 AM,42.8,35.6,76,29.71,10.0,SE,6.9,-,N/A,,Overcast,140,2014-01-14 09:35:00
4:55 AM,42.8,37.4,81,29.70,10.0,Calm,Calm,-,N/A,,Overcast,0,2014-01-14 09:55:00
5:15 AM,44.6,37.4,76,29.70,10.0,SSE,6.9,-,N/A,,Overcast,160,2014-01-14 10:15:00
5:35 AM,42.8,37.4,81,29.71,10.0,SSE,4.6,-,N/A,,Overcast,160,2014-01-14 10:35:00
5:55 AM,42.8,37.4,81,29.72,10.0,SSE,5.8,-,N/A,,Overcast,150,2014-01-14 10:55:00
6:15 AM,41.0,37.4,87,29.72,10.0,SE,3.5,-,0.01,,Overcast,130,2014-01-14 11:15:00
6:35 AM,39.2,37.4,93,29.73,10.0,ESE,4.6,-,0.01,,Overcast,110,2014-01-14 11:35:00
6:55 AM,39.2,39.2,100,29.72,10.0,ENE,3.5,-,0.01,,Overcast,70,2014-01-14 11:55:00
7:15 AM,39.2,37.4,93,29.74,10.0,SSW,3.5,-,N/A,,Overcast,210,2014-01-14 12:15:00
7:35 AM,39.2,37.4,93,29.73,10.0,SE,4.6,-,N/A,,Overcast,130,2014-01-14 12:35:00
7:55 AM,39.2,37.4,93,29.73,10.0,SE,3.5,-,N/A,,Overcast,140,2014-01-14 12:55:00
8:15 AM,39.2,37.4,93,29.73,10.0,ESE,4.6,-,N/A,,Overcast,110,2014-01-14 13:15:00
8:35 AM,41.0,39.2,93,29.73,9.0,SE,3.5,-,N/A,,Overcast,130,2014-01-14 13:35:00
8:55 AM,39.2,39.2,100,29.73,10.0,SE,3.5,-,N/A,,Overcast,130,2014-01-14 13:55:00
9:15 AM,39.2,39.2,100,29.73,10.0,Calm,Calm,-,0.01,,Overcast,0,2014-01-14 14:15:00
9:35 AM,39.2,39.2,100,29.72,5.0,Calm,Calm,-,0.01,,Overcast,0,2014-01-14 14:35:00
9:55 AM,39.2,39.2,100,29.73,10.0,SE,3.5,-,0.01,,Overcast,140,2014-01-14 14:55:00
10:15 AM,39.2,39.2,100,29.74,5.0,SE,3.5,-,N/A,,Overcast,140,2014-01-14 15:15:00
10:35 AM,41.0,39.2,93,29.72,1.5,ENE,3.5,-,0.01,,Overcast,70,2014-01-14 15:35:00
10:55 AM,39.2,37.4,93,29.73,0.8,Calm,Calm,-,0.02,,Overcast,0,2014-01-14 15:55:00
11:15 AM,41.0,41.0,100,29.72,4.0,Calm,Calm,-,0.02,,Overcast,0,2014-01-14 16:15:00
11:35 AM,41.0,41.0,100,29.71,2.0,Calm,Calm,-,0.03,,Overcast,0,2014-01-14 16:35:00
11:55 AM,41.0,39.2,93,29.71,8.0,Calm,Calm,-,0.04,,Overcast,0,2014-01-14 16:55:00
12:15 PM,42.8,41.0,93,29.71,7.0,Calm,Calm,-,N/A,,Overcast,0,2014-01-14 17:15:00
12:35 PM,42.8,41.0,93,29.71,8.0,Calm,Calm,-,0.01,,Overcast,0,2014-01-14 17:35:00
12:55 PM,42.8,41.0,93,29.69,5.0,Calm,Calm,-,0.02,,Overcast,0,2014-01-14 17:55:00
1:15 PM,42.8,41.0,93,29.71,2.0,Calm,Calm,-,0.02,,Overcast,0,2014-01-14 18:15:00
1:35 PM,42.8,41.0,93,29.69,1.8,NE,3.5,-,0.02,,Overcast,50,2014-01-14 18:35:00
1:55 PM,42.8,41.0,93,29.69,2.0,Calm,Calm,-,0.02,,Overcast,0,2014-01-14 18:55:00
2:15 PM,41.0,41.0,100,29.68,0.2,Calm,Calm,-,0.01,,Overcast,0,2014-01-14 19:15:00
2:35 PM,41.0,41.0,100,29.68,0.2,Calm,Calm,-,0.01,,Overcast,0,2014-01-14 19:35:00
2:55 PM,41.0,41.0,100,29.68,0.2,Calm,Calm,-,0.03,,Overcast,0,2014-01-14 19:55:00
3:15 PM,41.0,39.2,93,29.67,0.2,Calm,Calm,-,0.01,,Overcast,0,2014-01-14 20:15:00
3:35 PM,39.2,39.2,100,29.68,0.2,Calm,Calm,-,0.02,,Overcast,0,2014-01-14 20:35:00
3:55 PM,41.0,39.2,93,29.69,0.2,Calm,Calm,-,0.02,,Overcast,0,2014-01-14 20:55:00
4:15 PM,39.2,37.4,93,29.69,0.2,NW,3.5,-,0.02,,Overcast,310,2014-01-14 21:15:00
4:35 PM,41.0,39.2,93,29.71,0.2,Calm,Calm,-,0.05,,Overcast,0,2014-01-14 21:35:00
4:55 PM,39.2,37.4,93,29.69,0.2,Calm,Calm,-,0.07,,Overcast,0,2014-01-14 21:55:00
5:15 PM,39.2,39.2,100,29.68,0.2,Calm,Calm,-,0.01,,Overcast,0,2014-01-14 22:15:00
5:35 PM,39.2,37.4,93,29.68,0.5,Calm,Calm,-,0.03,,Overcast,0,2014-01-14 22:35:00
5:55 PM,39.2,39.2,100,29.67,0.2,Calm,Calm,-,0.04,,Overcast,0,2014-01-14 22:55:00
6:15 PM,39.2,39.2,100,29.67,0.2,Calm,Calm,-,N/A,,Overcast,0,2014-01-14 23:15:00
6:35 PM,39.2,37.4,93,29.69,0.2,Calm,Calm,-,N/A,,Overcast,0,2014-01-14 23:35:00
6:55 PM,39.2,39.2,100,29.68,0.2,Calm,Calm,-,N/A,,Overcast,0,2014-01-14 23:55:00
7:15 PM,39.2,37.4,93,29.68,0.5,Calm,Calm,-,0.01,,Overcast,0,2014-01-15 00:15:00
7:35 PM,37.4,37.4,100,29.69,0.2,Calm,Calm,-,0.01,,Overcast,0,2014-01-15 00:35:00
7:55 PM,37.4,35.6,93,29.68,0.5,Calm,Calm,-,0.01,,Overcast,0,2014-01-15 00:55:00
8:15 PM,39.2,37.4,93,29.70,0.5,Calm,Calm,-,0.01,,Overcast,0,2014-01-15 01:15:00
8:35 PM,37.4,35.6,93,29.67,0.5,NNE,4.6,-,0.01,,Overcast,30,2014-01-15 01:35:00
8:55 PM,37.4,37.4,100,29.71,0.5,West,3.5,-,0.01,,Overcast,270,2014-01-15 01:55:00
9:15 PM,37.4,37.4,100,29.72,10.0,NW,6.9,-,0.01,,Overcast,310,2014-01-15 02:15:00
9:35 PM,37.4,37.4,100,29.72,10.0,NNW,3.5,-,0.03,,Overcast,340,2014-01-15 02:35:00
9:55 PM,37.4,37.4,100,29.73,10.0,WNW,5.8,-,0.03,,Overcast,300,2014-01-15 02:55:00
10:15 PM,37.4,37.4,100,29.75,9.0,NW,5.8,-,N/A,,Overcast,320,2014-01-15 03:15:00
10:35 PM,37.4,37.4,100,29.76,10.0,NW,6.9,-,N/A,,Overcast,310,2014-01-15 03:35:00
10:55 PM,37.4,35.6,93,29.76,10.0,Calm,Calm,-,N/A,,Overcast,0,2014-01-15 03:55:00
11:15 PM,37.4,35.6,93,29.76,10.0,NNE,3.5,-,N/A,,Overcast,30,2014-01-15 04:15:00
11:35 PM,37.4,35.6,93,29.76,10.0,Calm,Calm,-,N/A,,Overcast,0,2014-01-15 04:35:00
11:55 PM,37.4,35.6,93,29.78,10.0,WNW,4.6,-,N/A,,Overcast,290,2014-01-15 04:55:00